Ainsworth, NE

4:31 PM CDT on August 29, 2016 (GMT -0500)
Ainsworth Municipal

Weather History for KANW - December, 2012

Change the Weather History Date:

Monday, December 17, 2012

  Actual Average Record
Temperature  
Mean Temperature 30 °F -  
Max Temperature 44 °F 35 °F 62 °F (1998)
Min Temperature 15 °F 15 °F -2 °F (2000)
Degree Days  
Heating Degree Days 36    
Moisture  
Dew Point 20 °F    
Average Humidity 73    
Maximum Humidity 94    
Minimum Humidity 33    
Precipitation  
Precipitation 0.00 in - - ()
Sea Level Pressure  
Sea Level Pressure 29.57 in    
Wind  
Wind Speed 7 mph (SSW)    
Max Wind Speed 13 mph    
Max Gust Speed -    
Visibility 10 miles    
Events      
Averages and records for this station are not official NWS values.
T = Trace of Precipitation, MM = Missing Value Source: NWS Daily Summary

Daily Weather History Graph

Daily Weather History Graph

Search for Another Location

Airport or City:

Trip Planner

Search our weather history database for the weather conditions in past years. The results will help you decide how hot, cold, wet, or windy it might be!

Date:

Astronomy

Dec. 17, 2012 Rise Set
Actual Time 8:04 AM CST 5:08 PM CST
Civil Twilight 7:32 AM CST 5:40 PM CST
Nautical Twilight 6:56 AM CST 6:15 PM CST
Astronomical Twilight 6:22 AM CST 6:50 PM CST
Moon 11:08 AM CST (12/17) 10:37 PM CST (12/17)
Length of Visible Light 10h 07m
Length of Day
9h 03m
Waxing Crescent, 25% of the Moon is Illuminated
Dec 17
Waxing Crescent
Dec 19
First Quarter
Dec 28
Full
Jan 4
Last Quarter
Jan 11
New

Hourly Weather History & Observations

Time (CST) Temp. Windchill Dew Point Humidity Pressure Visibility Wind Dir Wind Speed Gust Speed Precip Events Conditions
12:15 AM 24.8 °F 13.4 °F 21.0 °F 86% 29.69 in 10.0 mi WNW 12.7 mph - N/A   Clear
12:35 AM 24.8 °F 14.0 °F 21.2 °F 86% 29.69 in 10.0 mi WNW 11.5 mph - N/A   Clear
12:55 AM 24.6 °F 15.1 °F 22.1 °F 90% 29.68 in 10.0 mi WNW 9.2 mph - N/A   Clear
1:15 AM 23.9 °F 12.3 °F 21.7 °F 91% 29.69 in 10.0 mi WNW 12.7 mph - N/A   Clear
1:35 AM 23.4 °F 13.5 °F 21.6 °F 93% 29.69 in 10.0 mi NW 9.2 mph - N/A   Clear
1:55 AM 22.6 °F 14.3 °F 20.8 °F 93% 29.69 in 10.0 mi WNW 6.9 mph - N/A   Clear
2:15 AM 22.6 °F 13.4 °F 20.8 °F 93% 29.69 in 10.0 mi NW 8.1 mph - N/A   Clear
2:35 AM 22.5 °F 14.1 °F 20.7 °F 93% 29.69 in 7.0 mi NW 6.9 mph - N/A   Clear
2:55 AM 22.1 °F 14.7 °F 20.3 °F 93% 29.70 in 5.0 mi NNW 5.8 mph - N/A   Clear
3:15 AM 20.8 °F - 19.4 °F 94% 29.69 in 5.0 mi Calm Calm - N/A   Clear
3:35 AM 20.8 °F 14.4 °F 19.4 °F 94% 29.70 in 7.0 mi WNW 4.6 mph - N/A   Clear
3:55 AM 21.7 °F 15.5 °F 20.1 °F 93% 29.69 in 10.0 mi NW 4.6 mph - N/A   Clear
4:15 AM 21.9 °F 15.7 °F 20.1 °F 93% 29.68 in 10.0 mi WNW 4.6 mph - N/A   Clear
4:35 AM 19.8 °F 14.7 °F 17.6 °F 91% 29.68 in 10.0 mi West 3.5 mph - N/A   Clear
4:55 AM 20.3 °F - 18.5 °F 93% 29.67 in 7.0 mi Calm Calm - N/A   Clear
5:15 AM 19.0 °F - 17.2 °F 93% 29.66 in 7.0 mi Calm Calm - N/A   Clear
5:35 AM 18.1 °F 11.3 °F 16.0 °F 91% 29.67 in 10.0 mi West 4.6 mph - N/A   Clear
5:55 AM 19.0 °F 12.3 °F 17.1 °F 92% 29.67 in 10.0 mi West 4.6 mph - N/A   Clear
6:15 AM 17.8 °F - 15.4 °F 91% 29.67 in 10.0 mi Calm Calm - N/A   Clear
6:35 AM 16.7 °F - 14.5 °F 91% 29.67 in 10.0 mi Calm Calm - N/A   Clear
6:55 AM 15.6 °F 10.0 °F 13.3 °F 90% 29.66 in 10.0 mi SW 3.5 mph - N/A   Clear
7:15 AM 15.8 °F 10.2 °F 13.3 °F 90% 29.66 in 10.0 mi SW 3.5 mph - N/A   Clear
7:35 AM 16.0 °F 8.8 °F 13.5 °F 90% 29.65 in 10.0 mi WSW 4.6 mph - N/A   Clear
7:55 AM 17.4 °F 10.4 °F 15.1 °F 91% 29.65 in 10.0 mi WSW 4.6 mph - N/A   Clear
8:15 AM 18.3 °F 10.2 °F 15.3 °F 88% 29.65 in 10.0 mi WSW 5.8 mph - N/A   Clear
8:35 AM 18.5 °F 13.3 °F 15.3 °F 87% 29.64 in 10.0 mi WSW 3.5 mph - N/A   Clear
8:55 AM 20.8 °F 16.0 °F 17.6 °F 87% 29.64 in 10.0 mi WSW 3.5 mph - N/A   Clear
9:15 AM 23.2 °F 18.7 °F 19.2 °F 85% 29.64 in 10.0 mi WSW 3.5 mph - N/A   Clear
9:35 AM 26.1 °F 20.5 °F 21.6 °F 83% 29.63 in 10.0 mi WSW 4.6 mph - N/A   Clear
9:55 AM 28.4 °F 23.3 °F 22.8 °F 80% 29.64 in 10.0 mi WSW 4.6 mph - N/A   Clear
10:15 AM 30.2 °F 24.3 °F 23.4 °F 76% 29.63 in 10.0 mi WSW 5.8 mph - N/A   Clear
10:35 AM 32.0 °F 28.7 °F 24.6 °F 74% 29.63 in 10.0 mi WSW 3.5 mph - N/A   Clear
10:55 AM 33.8 °F 30.8 °F 24.6 °F 69% 29.63 in 10.0 mi SW 3.5 mph - N/A   Clear
11:15 AM 36.3 °F 33.7 °F 24.8 °F 63% 29.62 in 10.0 mi SSW 3.5 mph - N/A   Clear
11:35 AM 37.6 °F 35.1 °F 23.4 °F 57% 29.61 in 10.0 mi SSW 3.5 mph - N/A   Clear
11:55 AM 39.4 °F 35.2 °F 21.9 °F 50% 29.59 in 10.0 mi South 5.8 mph - N/A   Clear
12:15 PM 40.5 °F 35.8 °F 21.9 °F 48% 29.58 in 10.0 mi South 6.9 mph - N/A   Clear
12:35 PM 41.2 °F 38.2 °F 20.1 °F 43% 29.57 in 10.0 mi SSW 4.6 mph - N/A   Clear
12:55 PM 42.3 °F 37.9 °F 19.0 °F 39% 29.56 in 10.0 mi South 6.9 mph - N/A   Clear
1:15 PM 43.3 °F 37.7 °F 18.3 °F 37% 29.55 in 10.0 mi South 10.4 mph - N/A   Clear
1:35 PM 43.7 °F 37.7 °F 18.0 °F 36% 29.54 in 10.0 mi SSW 11.5 mph - N/A   Clear
1:55 PM 43.9 °F 38.3 °F 17.2 °F 34% 29.53 in 10.0 mi SSW 10.4 mph - N/A   Clear
2:15 PM 43.9 °F 37.9 °F 18.3 °F 36% 29.51 in 10.0 mi South 11.5 mph - N/A   Clear
2:35 PM 44.2 °F 38.8 °F 18.1 °F 35% 29.50 in 10.0 mi SSW 10.4 mph - N/A   Clear
2:55 PM 44.6 °F 38.8 °F 17.4 °F 34% 29.50 in 10.0 mi South 11.5 mph - N/A   Clear
3:15 PM 44.6 °F 39.2 °F 18.0 °F 34% 29.49 in 10.0 mi South 10.4 mph - N/A   Clear
3:35 PM 44.6 °F 38.8 °F 16.9 °F 33% 29.48 in 10.0 mi South 11.5 mph - N/A   Clear
3:55 PM 44.4 °F 39.5 °F 16.7 °F 33% 29.48 in 10.0 mi South 9.2 mph - N/A   Clear
6:35 PM 28.2 °F 21.0 °F 19.4 °F 70% 29.46 in 10.0 mi SE 6.9 mph - N/A   Clear
6:55 PM 27.7 °F 20.4 °F 19.8 °F 72% 29.46 in 10.0 mi SE 6.9 mph - N/A   Clear
7:15 PM 31.8 °F 24.6 °F 21.4 °F 65% 29.44 in 10.0 mi SE 8.1 mph - N/A   Clear
7:35 PM 29.8 °F 22.2 °F 21.0 °F 70% 29.43 in 10.0 mi SE 8.1 mph - N/A   Clear
7:55 PM 30.2 °F 22.6 °F 22.1 °F 72% 29.43 in 10.0 mi SE 8.1 mph - N/A   Clear
8:15 PM 32.0 °F 24.8 °F 22.8 °F 69% 29.42 in 10.0 mi SE 8.1 mph - N/A   Clear
8:35 PM 33.8 °F 26.4 °F 23.0 °F 65% 29.42 in 10.0 mi SSE 9.2 mph - N/A   Clear
8:55 PM 33.1 °F 24.9 °F 22.8 °F 66% 29.42 in 10.0 mi SSE 10.4 mph - N/A   Clear
9:15 PM 33.6 °F 25.6 °F 23.5 °F 67% 29.41 in 10.0 mi SSE 10.4 mph - N/A   Mostly Cloudy
9:35 PM 33.4 °F 24.8 °F 23.5 °F 67% 29.40 in 10.0 mi South 11.5 mph - N/A   Scattered Clouds
9:55 PM 33.3 °F 26.4 °F 23.9 °F 69% 29.40 in 10.0 mi South 8.1 mph - N/A   Mostly Cloudy
10:15 PM 33.3 °F 26.4 °F 24.1 °F 69% 29.38 in 10.0 mi SSE 8.1 mph - N/A   Mostly Cloudy
10:35 PM 31.6 °F 27.0 °F 23.0 °F 70% 29.38 in 10.0 mi East 4.6 mph - N/A   Scattered Clouds
10:55 PM 29.8 °F 24.9 °F 23.2 °F 76% 29.37 in 10.0 mi SE 4.6 mph - N/A   Clear
11:15 PM 28.6 °F - 22.1 °F 77% 29.39 in 10.0 mi Calm Calm - N/A   Clear
11:35 PM 26.2 °F 22.1 °F 21.2 °F 81% 29.39 in 10.0 mi SE 3.5 mph - N/A   Clear
11:55 PM 25.9 °F 20.3 °F 21.7 °F 84% 29.39 in 10.0 mi SE 4.6 mph - N/A   Clear